TimeCST,TemperatureF,Dew PointF,Humidity,Sea Level PressureIn,VisibilityMPH,Wind Direction,Wind SpeedMPH,Gust SpeedMPH,PrecipitationIn,Events,Conditions,WindDirDegrees,DateUTC
12:15 AM,46.4,41.0,81,29.83,10.0,ESE,4.6,-,N/A,,Overcast,110,2011-11-26 06:15:00
12:35 AM,46.4,41.0,81,29.82,10.0,SE,5.8,-,N/A,,Overcast,130,2011-11-26 06:35:00
12:55 AM,46.4,41.0,81,29.82,10.0,SE,6.9,-,N/A,,Overcast,130,2011-11-26 06:55:00
1:15 AM,46.4,42.8,87,29.82,10.0,SE,8.1,-,N/A,,Overcast,130,2011-11-26 07:15:00
1:35 AM,48.2,42.8,82,29.82,10.0,SE,8.1,-,N/A,,Overcast,140,2011-11-26 07:35:00
1:55 AM,50.0,41.0,71,29.81,10.0,SSE,10.4,-,N/A,,Overcast,150,2011-11-26 07:55:00
2:15 AM,50.0,41.0,71,29.81,10.0,South,11.5,-,N/A,,Overcast,170,2011-11-26 08:15:00
2:35 AM,50.0,41.0,71,29.81,10.0,SSE,11.5,-,N/A,,Overcast,160,2011-11-26 08:35:00
2:55 AM,50.0,41.0,71,29.79,10.0,SSE,11.5,-,N/A,,Overcast,160,2011-11-26 08:55:00
3:15 AM,50.0,41.0,71,29.79,10.0,South,12.7,18.4,N/A,,Overcast,170,2011-11-26 09:15:00
3:35 AM,50.0,41.0,71,29.79,10.0,South,11.5,-,N/A,,Overcast,170,2011-11-26 09:35:00
3:55 AM,50.0,41.0,71,29.79,10.0,South,12.7,-,N/A,,Overcast,170,2011-11-26 09:55:00
4:15 AM,50.0,41.0,71,29.79,10.0,South,12.7,-,N/A,,Overcast,170,2011-11-26 10:15:00
4:35 AM,50.0,41.0,71,29.77,10.0,SSE,13.8,-,N/A,,Overcast,160,2011-11-26 10:35:00
5:15 AM,50.0,41.0,71,29.78,10.0,South,12.7,-,N/A,,Overcast,180,2011-11-26 11:15:00
5:35 AM,50.0,41.0,71,29.78,10.0,South,13.8,-,N/A,,Overcast,180,2011-11-26 11:35:00
6:15 AM,50.0,41.0,71,29.80,10.0,South,16.1,21.9,N/A,,Overcast,190,2011-11-26 12:15:00
6:35 AM,50.0,42.8,76,29.78,7.0,South,13.8,20.7,N/A,,Overcast,180,2011-11-26 12:35:00
6:55 AM,50.0,42.8,76,29.79,10.0,SSW,17.3,20.7,N/A,,Overcast,200,2011-11-26 12:55:00
7:15 AM,48.2,44.6,87,29.78,7.0,South,10.4,18.4,N/A,,Overcast,180,2011-11-26 13:15:00
7:35 AM,48.2,46.4,93,29.79,7.0,South,12.7,17.3,N/A,,Overcast,170,2011-11-26 13:35:00
7:55 AM,48.2,46.4,93,29.80,4.0,South,13.8,-,N/A,,Overcast,170,2011-11-26 13:55:00
8:15 AM,48.2,46.4,93,29.81,4.0,South,15.0,20.7,N/A,,Overcast,190,2011-11-26 14:15:00
8:35 AM,48.2,46.4,93,29.82,7.0,South,15.0,20.7,N/A,Rain,Light Rain,190,2011-11-26 14:35:00
8:55 AM,48.2,46.4,93,29.81,5.0,South,12.7,-,N/A,Rain,Rain,190,2011-11-26 14:55:00
9:15 AM,48.2,46.4,93,29.81,5.0,South,15.0,18.4,N/A,Rain,Light Rain,180,2011-11-26 15:15:00
9:35 AM,48.2,46.4,93,29.80,7.0,South,12.7,-,N/A,,Light Drizzle,180,2011-11-26 15:35:00
9:55 AM,50.0,46.4,87,29.79,10.0,South,13.8,-,N/A,Rain,Light Rain,180,2011-11-26 15:55:00
10:15 AM,50.0,46.4,87,29.80,10.0,South,12.7,-,N/A,,Overcast,190,2011-11-26 16:15:00
10:35 AM,50.0,46.4,87,29.79,10.0,South,12.7,17.3,N/A,,Overcast,190,2011-11-26 16:35:00
10:55 AM,50.0,46.4,87,29.77,10.0,South,13.8,-,N/A,Rain,Rain,190,2011-11-26 16:55:00
11:15 AM,50.0,48.2,94,29.76,7.0,South,12.7,-,N/A,,Drizzle,190,2011-11-26 17:15:00
11:35 AM,50.0,48.2,94,29.76,7.0,SSW,11.5,-,N/A,Rain,Rain,200,2011-11-26 17:35:00
11:55 AM,50.0,48.2,94,29.77,7.0,SSW,11.5,-,N/A,Rain,Light Rain,200,2011-11-26 17:55:00
12:15 PM,50.0,48.2,94,29.76,7.0,South,10.4,-,0.01,Rain,Light Rain,190,2011-11-26 18:15:00
12:35 PM,50.0,48.2,94,29.77,7.0,South,13.8,-,0.02,Rain,Light Rain,190,2011-11-26 18:35:00
12:55 PM,50.0,50.0,100,29.76,5.0,SSW,11.5,-,0.04,Rain,Light Rain,200,2011-11-26 18:55:00
1:15 PM,50.0,50.0,100,29.76,5.0,SSW,12.7,-,0.01,Rain,Light Rain,200,2011-11-26 19:15:00
1:35 PM,50.0,50.0,100,29.76,5.0,SSW,10.4,-,0.03,Rain,Light Rain,200,2011-11-26 19:35:00
1:55 PM,50.0,50.0,100,29.75,7.0,SSW,11.5,-,0.04,Rain,Light Rain,200,2011-11-26 19:55:00
2:15 PM,50.0,50.0,100,29.75,5.0,South,10.4,-,0.01,Rain,Rain,190,2011-11-26 20:15:00
2:35 PM,50.0,50.0,100,29.75,7.0,SSW,9.2,-,0.03,Rain,Light Rain,200,2011-11-26 20:35:00
2:55 PM,50.0,50.0,100,29.76,7.0,South,9.2,-,0.05,Rain,Light Rain,190,2011-11-26 20:55:00
3:15 PM,50.0,50.0,100,29.77,5.0,South,8.1,-,0.02,Rain,Light Rain,190,2011-11-26 21:15:00
3:35 PM,50.0,50.0,100,29.77,5.0,South,6.9,-,0.05,Rain,Light Rain,190,2011-11-26 21:35:00
3:55 PM,50.0,50.0,100,29.77,4.0,SSW,8.1,-,0.08,Rain,Rain,200,2011-11-26 21:55:00
4:15 PM,50.0,50.0,100,29.77,4.0,SSW,5.8,-,0.02,Rain,Light Rain,200,2011-11-26 22:15:00
4:35 PM,50.0,50.0,100,29.77,4.0,SSW,6.9,-,0.04,Rain,Light Rain,200,2011-11-26 22:35:00
4:55 PM,50.0,50.0,100,29.77,3.0,SW,5.8,-,0.05,Rain,Light Rain,220,2011-11-26 22:55:00
5:15 PM,50.0,50.0,100,29.76,4.0,WSW,3.5,-,0.01,Rain,Light Rain,240,2011-11-26 23:15:00
5:35 PM,50.0,50.0,100,29.77,4.0,SSW,5.8,-,0.01,Rain,Light Rain,210,2011-11-26 23:35:00
5:55 PM,50.0,50.0,100,29.77,4.0,SW,6.9,-,0.02,,Drizzle,220,2011-11-26 23:55:00
6:15 PM,50.0,50.0,100,29.77,3.0,SSW,6.9,-,0.01,Rain,Light Rain,210,2011-11-27 00:15:00
6:35 PM,50.0,48.2,94,29.77,2.5,SSW,4.6,-,0.03,Rain,Light Rain,210,2011-11-27 00:35:00
6:55 PM,50.0,48.2,94,29.76,2.5,SW,4.6,-,0.04,Rain,Light Rain,220,2011-11-27 00:55:00
7:15 PM,50.0,48.2,94,29.77,2.0,SW,4.6,-,N/A,,Drizzle,230,2011-11-27 01:15:00
7:35 PM,50.0,50.0,100,29.77,2.5,SW,4.6,-,N/A,,Drizzle,230,2011-11-27 01:35:00
7:55 PM,50.0,48.2,94,29.77,1.8,West,6.9,-,0.01,Rain,Light Rain,260,2011-11-27 01:55:00
8:15 PM,48.2,46.4,93,29.78,5.0,West,8.1,-,0.01,Rain,Rain,260,2011-11-27 02:15:00
8:35 PM,46.4,46.4,100,29.78,5.0,West,10.4,-,0.02,Rain,Light Rain,260,2011-11-27 02:35:00
8:55 PM,46.4,44.6,93,29.78,5.0,West,6.9,-,0.03,Rain,Rain,280,2011-11-27 02:55:00
9:15 PM,44.6,44.6,100,29.79,7.0,West,5.8,17.3,N/A,,Drizzle,280,2011-11-27 03:15:00
9:35 PM,42.8,42.8,100,29.78,7.0,WNW,9.2,-,N/A,Rain,Light Rain,300,2011-11-27 03:35:00
9:55 PM,42.8,42.8,100,29.77,10.0,WNW,6.9,-,N/A,,Drizzle,290,2011-11-27 03:55:00
10:15 PM,42.8,42.8,100,29.79,7.0,West,5.8,-,N/A,,Drizzle,280,2011-11-27 04:15:00
10:35 PM,42.8,42.8,100,29.78,7.0,WNW,8.1,-,N/A,,Drizzle,300,2011-11-27 04:35:00
10:55 PM,42.8,42.8,100,29.79,7.0,WNW,6.9,-,N/A,,Drizzle,290,2011-11-27 04:55:00
11:15 PM,42.8,42.8,100,29.79,10.0,WNW,4.6,-,N/A,Rain,Light Rain,290,2011-11-27 05:15:00
11:55 PM,41.0,41.0,100,29.80,10.0,West,8.1,-,0.01,Rain,Light Rain,280,2011-11-27 05:55:00